TimePST,TemperatureF,Dew PointF,Humidity,Sea Level PressureIn,VisibilityMPH,Wind Direction,Wind SpeedMPH,Gust SpeedMPH,PrecipitationIn,Events,Conditions,WindDirDegrees,DateUTC
12:33 AM,32.0,32.0,100,30.23,0.2,SE,9.2,-,N/A,Fog,Fog,130,2012-11-22 08:33:00
1:09 AM,33.8,32.0,93,30.24,0.2,ESE,9.2,-,N/A,Fog,Fog,120,2012-11-22 09:09:00
1:56 AM,32.0,32.0,100,30.30,0.5,ESE,9.2,-,N/A,Fog,Fog,120,2012-11-22 09:56:00
2:13 AM,32.0,30.2,93,30.24,0.5,SE,9.2,-,N/A,Fog,Fog,130,2012-11-22 10:13:00
2:56 AM,33.1,32.0,96,30.30,0.8,SE,12.7,-,N/A,,Mist,130,2012-11-22 10:56:00
3:11 AM,32.0,32.0,100,30.24,1.0,ESE,9.2,-,N/A,,Mist,120,2012-11-22 11:11:00
3:18 AM,32.0,30.2,93,30.23,0.8,ESE,9.2,-,N/A,,Mist,120,2012-11-22 11:18:00
3:29 AM,32.0,30.2,93,30.23,1.5,ESE,11.5,-,N/A,,Mostly Cloudy,120,2012-11-22 11:29:00
3:37 AM,32.0,30.2,93,30.23,0.8,ESE,10.4,-,N/A,,Mist,120,2012-11-22 11:37:00
3:56 AM,32.0,30.9,96,30.30,0.8,ESE,10.4,-,N/A,,Mist,120,2012-11-22 11:56:00
4:08 AM,32.0,30.2,93,30.23,1.5,ESE,11.5,-,N/A,,Mostly Cloudy,120,2012-11-22 12:08:00
4:16 AM,32.0,30.2,93,30.22,0.8,SE,12.7,-,N/A,,Mist,130,2012-11-22 12:16:00
4:36 AM,32.0,30.2,93,30.22,1.0,SE,12.7,-,N/A,,Mist,130,2012-11-22 12:36:00
4:44 AM,32.0,30.2,93,30.22,0.8,ESE,11.5,-,N/A,,Mist,120,2012-11-22 12:44:00
4:56 AM,32.0,30.9,96,30.30,1.5,ESE,11.5,-,N/A,,Mostly Cloudy,120,2012-11-22 12:56:00
5:09 AM,32.0,30.2,93,30.23,5.0,ESE,10.4,-,N/A,,Scattered Clouds,110,2012-11-22 13:09:00
6:56 AM,30.9,30.0,96,30.30,5.0,SE,17.3,-,N/A,,Clear,130,2012-11-22 14:56:00
7:56 AM,32.0,30.0,92,30.32,10.0,SE,15.0,-,N/A,,Clear,130,2012-11-22 15:56:00
8:56 AM,33.1,30.9,92,30.32,10.0,SE,15.0,-,N/A,,Clear,130,2012-11-22 16:56:00
9:56 AM,37.0,32.0,82,30.31,10.0,ESE,15.0,-,N/A,,Clear,120,2012-11-22 17:56:00
10:56 AM,37.9,32.0,79,30.30,10.0,SE,13.8,-,N/A,,Clear,130,2012-11-22 18:56:00
11:56 AM,41.0,30.9,67,30.31,10.0,ESE,10.4,-,0.01,,Clear,120,2012-11-22 19:56:00
12:56 PM,39.9,30.0,68,30.29,10.0,SE,15.0,-,N/A,,Clear,130,2012-11-22 20:56:00
1:56 PM,39.9,30.0,68,30.28,10.0,SE,18.4,-,N/A,,Clear,140,2012-11-22 21:56:00
2:56 PM,39.9,30.9,70,30.29,10.0,SE,12.7,-,N/A,,Clear,130,2012-11-22 22:56:00
3:56 PM,41.0,28.9,62,30.29,10.0,SE,9.2,-,N/A,,Clear,130,2012-11-22 23:56:00
4:56 PM,42.1,27.0,55,30.29,10.0,SE,10.4,-,N/A,,Clear,140,2012-11-23 00:56:00
5:56 PM,42.1,28.0,58,30.29,10.0,SE,13.8,-,N/A,,Clear,130,2012-11-23 01:56:00
6:56 PM,41.0,30.0,65,30.29,10.0,SE,13.8,-,N/A,,Clear,130,2012-11-23 02:56:00
7:56 PM,41.0,30.0,65,30.28,10.0,SE,13.8,-,N/A,,Clear,130,2012-11-23 03:56:00
8:56 PM,39.9,30.9,70,30.30,10.0,SE,12.7,-,N/A,,Clear,130,2012-11-23 04:56:00
9:56 PM,43.0,28.9,58,30.29,10.0,SSE,8.1,-,N/A,,Clear,150,2012-11-23 05:56:00
10:56 PM,43.0,30.0,60,30.28,10.0,SSE,9.2,-,N/A,,Clear,150,2012-11-23 06:56:00
11:56 PM,43.0,30.0,60,30.28,10.0,SSE,8.1,-,N/A,,Clear,150,2012-11-23 07:56:00